Wind_Speed
19 19 19 19 18 19 19 19 18 19 20 21 21 21 21 21 22 22 21 21 21 21 22 22 22 23 23 22 23 22 22 22 21 22 21 21 20 20
18 18 19 19 20 20 19 18 18 19 20 20 20 21 21 21 22 22 22 23 22 22 22 22 23 23 23 23 23 23 22 23 23 23 22 22 22 21
18 18 18 19 19 20 20 19 19 20 21 21 21 21 21 22 22 22 22 23 23 22 22 22 23 22 22 22 22 22 23 23 23 22 22 22 22 23
18 18 18 19 18 18 19 20 21 21 21 21 21 21 21 21 23 24 24 23 23 22 22 22 22 22 23 23 23 24 24 24 23 23 23 23 23 24
19 19 19 19 19 18 18 19 20 20 20 20 20 21 21 21 22 23 24 24 23 23 23 23 23 22 22 23 23 24 24 24 24 24 24 25 24 24
21 20 19 19 19 19 19 20 20 21 21 21 21 21 22 22 22 23 23 23 23 23 23 24 23 23 23 24 24 24 25 25 25 25 25 25 25 25
22 21 21 20 20 21 21 21 21 22 22 22 22 22 22 22 23 23 23 24 23 24 24 23 23 23 24 25 25 25 25 26 26 26 26 26 27 26
23 23 22 22 22 22 22 22 23 23 23 24 24 24 23 24 24 24 24 23 23 24 24 24 25 25 25 25 25 25 25 26 27 27 27 27 27 27
24 24 24 24 23 23 23 23 24 24 24 24 24 24 24 25 25 25 25 24 24 24 24 25 26 26 26 26 26 26 26 27 26 27 27 27 27 27
25 25 25 25 23 23 23 24 25 25 25 24 24 24 25 25 25 25 25 26 25 25 24 25 26 26 27 26 26 27 27 28 28 27 27 27 27 28
26 26 25 24 24 24 24 24 24 25 25 25 25 25 25 26 26 26 26 26 26 26 25 25 25 26 26 26 26 27 27 28 28 28 28 28 27 27
27 25 24 24 24 24 24 24 24 24 24 24 24 25 26 26 26 26 26 26 27 26 25 26 25 26 26 26 26 26 27 27 27 27 26 26 26 26
27 26 25 24 24 24 24 24 24 23 23 23 24 25 25 25 26 26 27 27 27 27 27 27 27 26 26 26 25 24 25 25 25 25 25 25 25 25
28 27 26 25 25 24 24 24 24 23 23 23 24 24 24 24 25 26 26 26 27 27 27 27 26 26 26 25 24 24 23 23 23 23 23 24 24 25
28 28 28 27 26 26 25 24 24 24 23 23 23 24 24 24 24 25 25 25 25 26 26 26 26 25 24 24 24 24 23 23 23 23 23 23 24 24
29 29 28 27 27 26 25 24 24 25 25 24 24 24 24 23 23 24 24 25 25 25 25 25 25 24 24 24 23 23 23 23 23 23 23 23 23 24
28 28 28 28 27 26 25 24 24 24 24 24 24 23 23 24 24 24 24 24 25 25 24 24 24 24 24 24 23 24 24 23 23 23 23 23 23 23
29 29 29 27 26 26 25 24 23 23 23 22 22 22 23 23 24 24 24 23 24 25 24 24 24 23 23 23 23 23 23 23 23 23 23 22 22 22
29 29 29 27 26 24 23 23 23 23 22 22 21 21 22 23 23 24 24 25 24 24 24 23 23 24 24 24 23 23 22 22 22 23 22 21 21 22
28 28 27 26 25 24 23 23 22 22 22 22 22 23 23 24 24 24 25 25 25 24 24 24 24 24 23 23 23 23 22 22 23 22 22 22 22 22
26 26 26 25 25 24 23 23 22 22 22 22 22 23 23 24 24 24 25 25 24 24 24 24 23 23 24 23 22 22 22 23 23 23 23 22 22 23
25 25 25 24 23 22 22 21 22 22 22 22 22 22 22 23 24 24 25 25 24 23 23 23 23 23 23 23 23 23 23 22 22 22 22 22 22 22
24 24 24 24 23 22 21 21 21 21 20 21 21 21 21 22 22 23 24 24 24 23 23 23 23 23 23 22 22 23 22 22 22 22 23 23 22 21
Wind_Direction
299 294 292 289 285 279 278 276 273 271 269 266 264 264 265 264 263 263 263 265 266 265 266 266 265 266 266 268 268 265 263 261 262 261 261 261 261 261
303 299 294 290 286 281 278 276 274 272 271 270 269 267 267 265 264 261 263 263 267 266 267 267 266 266 266 267 266 265 264 262 263 263 263 263 262 261
305 300 295 290 286 282 278 277 276 273 269 267 269 269 267 266 267 265 265 264 265 266 266 265 264 264 265 266 265 266 263 262 261 261 263 265 264 263
307 301 297 293 289 283 282 280 279 277 271 268 270 269 267 266 266 267 266 265 264 265 265 265 265 264 265 265 265 265 265 263 261 261 264 265 265 263
311 305 298 295 292 288 285 283 282 280 274 270 271 270 268 268 269 269 268 267 266 266 266 267 267 266 265 265 266 266 265 264 261 261 262 264 264 262
313 309 303 298 293 289 287 285 284 281 277 273 273 272 272 271 270 270 270 271 270 270 268 267 268 268 267 267 267 266 265 262 262 261 262 265 264 264
313 310 305 300 295 289 286 285 284 282 278 275 275 275 275 273 271 272 273 275 272 273 270 268 268 268 268 268 268 265 265 263 262 262 263 263 264 264
310 308 305 300 294 289 286 285 284 281 278 276 276 276 275 274 273 273 274 276 274 272 271 270 269 268 268 268 268 268 267 266 264 264 265 265 265 265
310 307 304 300 295 290 287 284 282 280 278 276 274 274 274 273 273 273 273 274 276 277 276 275 272 271 271 271 268 267 266 266 268 267 267 266 265 265
309 307 304 301 296 292 287 285 283 282 279 278 276 273 272 272 272 273 272 273 275 275 275 275 274 272 272 271 267 267 267 266 267 267 265 265 265 264
310 307 305 302 301 296 291 287 284 282 280 278 277 273 272 272 272 272 272 273 273 275 275 276 275 272 271 269 269 268 267 266 267 266 264 264 264 263
311 311 307 305 303 301 295 289 285 282 280 279 278 276 273 272 271 271 272 272 271 272 273 273 273 272 272 270 271 269 267 267 266 266 265 263 263 264
310 309 308 306 304 302 297 292 288 285 283 280 277 276 275 273 272 272 272 271 270 270 270 271 271 272 272 271 270 269 268 267 266 264 264 263 263 264
308 307 306 305 305 303 299 294 289 287 285 282 278 276 275 274 273 272 271 270 269 269 269 270 272 272 271 269 268 267 268 268 267 265 263 263 265 265
307 306 304 303 302 301 299 295 289 286 285 283 280 278 275 274 273 271 269 269 270 271 269 270 271 270 270 269 268 266 267 266 266 265 264 265 266 266
305 304 303 303 303 301 298 294 291 288 286 284 280 278 275 274 273 272 270 270 271 272 272 271 270 268 268 267 266 265 266 265 264 264 265 265 266 267
306 306 306 305 304 302 299 295 293 291 289 286 280 277 275 273 271 270 271 270 271 270 270 271 271 269 268 266 266 266 265 264 264 264 265 266 266 266
307 307 306 305 304 302 299 297 293 291 289 287 283 278 274 272 271 270 270 272 272 271 270 271 270 270 271 268 267 267 265 265 265 265 264 264 265 266
307 307 306 305 303 301 299 297 294 291 288 285 282 279 276 274 273 272 270 269 269 269 270 269 268 270 271 267 266 268 269 268 266 266 265 264 265 267
306 306 306 305 303 300 298 296 295 292 290 288 283 280 278 276 274 272 270 270 268 267 268 269 269 269 268 266 265 266 267 268 268 266 266 266 268 269
306 307 306 303 301 298 298 296 295 296 295 293 290 284 280 278 274 272 270 270 268 266 267 268 268 266 266 266 265 266 267 267 267 266 266 267 268 270
306 306 306 305 302 301 300 299 299 298 297 296 294 290 284 280 277 273 269 268 268 267 266 268 266 264 267 269 268 267 269 269 267 267 267 268 269 270
306 305 304 304 303 302 301 300 300 299 298 297 296 292 287 283 280 275 272 269 267 267 266 267 266 265 268 269 268 269 269 268 267 268 268 268 269 269
Height
5838 5837 5836 5835 5834 5834 5833 5833 5834 5834 5834 5835 5836 5837 5838 5839 5839 5840 5841 5842 5842 5842 5843 5844 5845 5846 5846 5847 5847 5848 5848 5849 5849 5849 5850 5850 5851 5852
5834 5832 5831 5830 5829 5828 5828 5828 5828 5828 5829 5830 5831 5831 5832 5833 5832 5833 5834 5835 5835 5836 5837 5838 5839 5839 5840 5840 5841 5841 5842 5843 5843 5843 5844 5844 5845 5845
5830 5828 5827 5825 5824 5823 5823 5823 5823 5823 5823 5823 5824 5825 5826 5826 5826 5826 5828 5829 5829 5830 5831 5831 5832 5833 5833 5834 5835 5835 5836 5836 5837 5837 5837 5838 5838 5839
5826 5824 5822 5821 5819 5818 5818 5818 5818 5817 5817 5818 5818 5819 5819 5820 5821 5821 5822 5822 5823 5823 5824 5825 5825 5826 5827 5827 5828 5829 5829 5830 5830 5831 5831 5832 5832 5833
5821 5820 5818 5816 5815 5814 5813 5813 5812 5812 5812 5812 5813 5813 5813 5814 5815 5815 5815 5816 5816 5816 5817 5818 5819 5819 5820 5821 5821 5822 5822 5823 5824 5824 5824 5825 5825 5826
5817 5814 5812 5811 5809 5808 5808 5807 5806 5806 5806 5807 5807 5807 5808 5808 5808 5809 5809 5809 5810 5810 5811 5811 5812 5813 5813 5814 5814 5815 5815 5816 5816 5817 5817 5818 5818 5818
5812 5809 5807 5806 5804 5803 5802 5801 5801 5800 5800 5801 5801 5801 5802 5802 5802 5802 5803 5803 5803 5803 5804 5805 5806 5806 5806 5807 5807 5807 5808 5808 5809 5809 5810 5810 5811 5811
5807 5804 5802 5800 5798 5797 5796 5795 5794 5794 5794 5794 5794 5795 5796 5796 5796 5796 5796 5796 5797 5797 5797 5798 5799 5799 5799 5799 5800 5800 5800 5800 5801 5801 5802 5802 5803 5804
5801 5799 5796 5794 5792 5791 5789 5788 5788 5787 5787 5787 5787 5788 5788 5788 5789 5789 5789 5789 5790 5790 5790 5790 5791 5791 5791 5791 5791 5792 5792 5793 5793 5793 5794 5794 5795 5796
5795 5793 5790 5788 5786 5784 5783 5782 5781 5780 5780 5780 5780 5780 5780 5781 5781 5781 5781 5782 5782 5782 5782 5782 5782 5783 5783 5783 5783 5783 5784 5784 5785 5785 5786 5786 5787 5787
5789 5786 5783 5782 5780 5777 5776 5775 5774 5773 5773 5773 5773 5772 5773 5773 5774 5774 5774 5774 5774 5774 5774 5774 5774 5775 5775 5775 5775 5775 5776 5776 5776 5777 5777 5778 5778 5779
5783 5780 5778 5775 5773 5771 5769 5768 5767 5766 5765 5765 5765 5765 5765 5765 5766 5766 5766 5766 5766 5766 5766 5767 5767 5767 5767 5767 5767 5767 5767 5768 5768 5768 5769 5769 5770 5771
5777 5774 5772 5769 5767 5764 5762 5761 5760 5759 5758 5758 5758 5758 5758 5758 5758 5758 5758 5758 5758 5759 5759 5759 5759 5759 5759 5759 5759 5759 5759 5759 5760 5760 5761 5761 5762 5763
5770 5768 5765 5763 5760 5758 5756 5754 5753 5752 5751 5750 5750 5750 5750 5750 5750 5750 5750 5750 5750 5750 5750 5750 5751 5751 5751 5751 5751 5751 5751 5751 5752 5752 5753 5753 5754 5754
5763 5761 5758 5756 5753 5750 5749 5747 5746 5744 5743 5743 5742 5742 5742 5742 5742 5742 5742 5742 5742 5743 5743 5743 5743 5743 5743 5743 5744 5744 5744 5744 5744 5745 5745 5746 5746 5746
5756 5754 5751 5748 5746 5743 5741 5739 5738 5737 5736 5735 5734 5733 5733 5734 5734 5734 5734 5734 5735 5735 5735 5735 5735 5735 5735 5736 5736 5736 5736 5737 5737 5737 5737 5738 5738 5738
5749 5747 5744 5741 5739 5736 5734 5732 5731 5730 5728 5727 5726 5726 5725 5726 5726 5726 5727 5727 5727 5728 5728 5728 5727 5727 5728 5728 5728 5728 5729 5729 5729 5729 5730 5730 5730 5730
5742 5739 5736 5733 5731 5729 5727 5725 5723 5722 5721 5720 5719 5718 5718 5718 5718 5718 5718 5719 5719 5720 5720 5720 5720 5721 5721 5721 5721 5721 5721 5721 5721 5721 5721 5722 5722 5722
5734 5732 5729 5726 5724 5721 5719 5717 5716 5714 5713 5712 5711 5711 5710 5710 5710 5710 5711 5711 5712 5712 5712 5712 5713 5713 5713 5713 5713 5713 5713 5713 5713 5713 5713 5713 5714 5714
5727 5725 5721 5718 5716 5714 5712 5710 5709 5707 5706 5705 5704 5703 5703 5703 5703 5703 5703 5703 5704 5704 5705 5705 5705 5705 5705 5705 5706 5705 5705 5705 5705 5705 5705 5705 5706 5706
5720 5717 5714 5711 5709 5707 5705 5703 5702 5700 5699 5698 5697 5696 5695 5694 5694 5694 5695 5695 5695 5696 5697 5697 5697 5697 5697 5697 5698 5698 5697 5697 5697 5697 5697 5697 5698 5698
5714 5711 5708 5705 5702 5700 5698 5697 5695 5694 5692 5691 5689 5688 5687 5686 5686 5686 5686 5687 5687 5688 5688 5689 5689 5689 5689 5689 5690 5690 5690 5689 5689 5689 5689 5690 5690 5690
5707 5704 5702 5699 5697 5694 5692 5691 5689 5687 5685 5684 5682 5680 5679 5679 5678 5678 5678 5678 5679 5680 5680 5681 5681 5681 5682 5682 5682 5682 5682 5682 5682 5682 5682 5682 5682 5683